"startDT [UTC]","vpos","CH4 [ppm]","stdev(CH4) [ppm]","CO2 [ppm]","stdev(CO2) [ppm]","H2O_reported [%]","stdev(H2O_reported)","CavityPressure [torr]","CavityTemp [C]","OutletValve","CH4_dry [ppm]","CO2_dry [ppm]","DasTemp [C]","EtalonTemp [C]","WarmBoxTemp [C]","MPVPosition","T_ECpre [C]","T_EC1 [C]","T_EC2 [C]","p_inlet [hPa]","p_in [hPa]","p_out [hPa]","T_inlet [C]","RH_inlet [%]","dwpt_inlet [C]","T_vent [C]","RH_vent [%]","dwpt_vent [C]","flow_vent [l min-1]","flow_inlet [l min-1]","dwpt_sample [C]","T_room [C]"
2015-02-10 00:00:00,0.0,1.94101,0.00034,405.654,0.032,0.0730,0.0017,140.002,45.000,27698.66181,1.94240,406.011,31.384,45.068,45.000,0.00,0.09,-272.68,-272.75,-13,14,1,18.3,2.8,-28.5,18.6,3.3,-26.3,5.73,2.41,-23.5,24.6
2015-02-10 00:01:00,0.0,1.94105,0.00026,405.652,0.036,0.0722,0.0019,140.001,45.000,27699.30483,1.94243,406.005,31.378,45.068,45.000,0.00,0.09,-272.69,-272.76,-12,13,1,18.3,2.7,-28.6,18.7,3.3,-26.3,5.73,2.49,-23.5,24.7
2015-02-10 00:02:00,0.0,1.94111,0.00035,405.649,0.031,0.0724,0.0017,140.001,45.000,27700.47881,1.94249,406.000,31.391,45.068,45.000,0.00,0.09,-272.70,-272.75,-12,14,1,18.3,2.7,-28.7,18.7,3.3,-26.3,5.73,2.53,-23.5,24.6
2015-02-10 00:03:00,0.0,1.94092,0.00040,405.658,0.031,0.0718,0.0020,140.000,45.000,27698.74554,1.94229,406.008,31.381,45.068,45.000,0.00,0.09,-272.68,-272.75,-12,14,1,18.4,2.7,-28.7,18.7,3.3,-26.3,5.73,2.42,-23.5,24.7
2015-02-10 00:04:00,0.0,1.94102,0.00040,405.682,0.032,0.0719,0.0015,140.002,45.000,27700.37242,1.94239,406.033,31.377,45.068,45.000,0.00,0.09,-272.69,-272.75,-12,13,1,18.4,2.7,-28.7,18.7,3.3,-26.3,5.73,2.46,-23.5,24.7
2015-02-10 00:05:00,0.0,1.94084,0.00036,405.629,0.026,0.0722,0.0012,139.999,45.000,27701.42356,1.94223,405.981,31.375,45.069,45.000,0.00,0.09,-272.70,-272.75,-12,14,1,18.4,2.7,-28.7,18.7,3.3,-26.3,5.73,2.54,-23.5,24.7
2015-02-10 00:06:00,0.0,1.94075,0.00038,405.657,0.042,0.0723,0.0017,140.001,45.000,27703.31810,1.94213,406.011,31.377,45.069,45.000,0.00,0.09,-272.69,-272.75,-12,13,1,18.4,2.7,-28.7,18.7,3.3,-26.3,5.73,2.45,-23.5,24.7
2015-02-10 00:07:00,0.0,1.94042,0.00037,405.638,0.035,0.0730,0.0017,139.999,45.000,27706.27812,1.94184,405.995,31.375,45.069,45.001,0.00,0.09,-272.69,-272.75,-12,13,1,18.4,2.7,-28.6,18.7,3.3,-26.3,5.73,2.43,-23.5,24.7
2015-02-10 00:08:00,0.0,1.94056,0.00034,405.636,0.029,0.0727,0.0012,139.998,45.000,27706.03760,1.94191,405.991,31.375,45.069,45.001,0.00,0.09,-272.69,-272.74,-12,14,1,18.4,2.7,-28.6,18.7,3.3,-26.3,5.73,2.54,-23.5,24.7
2015-02-10 00:09:00,0.0,1.94025,0.00038,405.642,0.032,0.0727,0.0017,139.998,45.000,27705.49324,1.94167,405.997,31.391,45.069,45.001,0.00,0.09,-272.69,-272.74,-12,13,1,18.4,2.8,-28.5,18.7,3.3,-26.3,5.73,2.50,-23.5,24.7
2015-02-10 00:10:00,0.0,1.93963,0.00044,405.628,0.025,0.0743,0.0014,139.997,45.000,27707.40948,1.94109,405.991,31.425,45.069,45.001,0.00,0.09,-272.69,-272.74,-12,13,1,18.4,2.8,-28.3,18.7,3.3,-26.3,5.73,2.42,-23.5,24.7
2015-02-10 00:11:00,0.0,1.94002,0.00037,405.625,0.036,0.0754,0.0024,140.000,45.000,27708.22366,1.94143,405.992,31.431,45.069,45.001,0.00,0.09,-272.68,-272.75,-12,14,1,18.5,2.8,-28.2,18.7,3.3,-26.3,5.73,2.49,-23.5,24.7
2015-02-10 00:12:00,0.0,1.93992,0.00030,405.632,0.022,0.0750,0.0016,139.999,45.000,27708.57930,1.94136,405.999,31.443,45.069,45.001,0.00,0.09,-272.70,-272.75,-12,13,1,18.5,2.8,-28.3,18.8,3.3,-26.2,5.73,2.54,-23.5,24.7
2015-02-10 00:13:00,0.0,1.94015,0.00036,405.635,0.037,0.0748,0.0019,139.998,45.000,27706.96800,1.94156,405.999,31.480,45.069,45.000,0.00,0.09,-272.69,-272.75,-12,13,1,18.5,2.8,-28.3,18.8,3.3,-26.2,5.73,2.45,-23.5,24.7
2015-02-10 00:14:00,0.0,1.94016,0.00036,405.618,0.038,0.0754,0.0015,139.999,45.001,27709.80024,1.94161,405.987,31.497,45.069,45.000,0.00,0.09,-272.69,-272.75,-12,14,0,18.5,2.8,-28.2,18.7,3.3,-26.3,5.73,2.44,-23.5,24.7
2015-02-10 00:15:00,0.0,1.94028,0.00043,405.600,0.034,0.0756,0.0017,140.001,45.000,27709.92994,1.94173,405.968,31.499,45.068,45.000,0.00,0.09,-272.69,-272.76,-12,13,1,18.5,2.8,-28.2,18.8,3.3,-26.3,5.73,2.53,-23.5,24.8
2015-02-10 00:16:00,0.0,1.94022,0.00036,405.620,0.026,0.0754,0.0019,139.999,45.000,27712.47298,1.94167,405.989,31.508,45.069,45.000,0.00,0.09,-272.69,-272.74,-12,14,0,18.5,2.8,-28.3,18.8,3.3,-26.2,5.73,2.51,-23.5,24.8
2015-02-10 00:17:00,0.0,1.94035,0.00037,405.653,0.031,0.0739,0.0015,140.001,45.000,27711.83018,1.94175,406.012,31.522,45.069,45.000,0.00,0.09,-272.69,-272.74,-12,14,1,18.5,2.8,-28.4,18.8,3.3,-26.2,5.73,2.42,-23.5,24.8
2015-02-10 00:18:00,0.0,1.94040,0.00040,405.655,0.026,0.0737,0.0016,140.002,45.000,27712.88441,1.94181,406.014,31.534,45.068,45.000,0.00,0.09,-272.68,-272.75,-12,13,0,18.5,2.7,-28.5,18.8,3.3,-26.2,5.73,2.48,-23.5,24.7
2015-02-10 00:19:00,0.0,1.94044,0.00042,405.671,0.030,0.0738,0.0019,140.001,45.000,27712.15789,1.94184,406.030,31.555,45.068,45.000,0.00,0.09,-272.70,-272.75,-12,13,1,18.5,2.7,-28.6,18.8,3.3,-26.2,5.73,2.54,-23.5,24.8
2015-02-10 00:20:00,0.0,1.93994,0.00046,405.630,0.038,0.0755,0.0017,139.999,45.000,27713.00686,1.94139,405.999,31.563,45.068,45.000,0.00,0.09,-272.70,-272.74,-13,14,1,18.5,2.8,-28.3,18.8,3.3,-26.2,5.73,2.46,-23.5,24.8
2015-02-10 00:21:00,0.0,1.94021,0.00030,405.636,0.029,0.0754,0.0011,139.998,45.000,27715.79001,1.94165,406.003,31.589,45.069,45.000,0.00,0.09,-272.69,-272.75,-13,13,0,18.5,2.8,-28.2,18.8,3.3,-26.2,5.73,2.43,-23.5,24.8
2015-02-10 00:22:00,0.0,1.94047,0.00034,405.654,0.025,0.0737,0.0013,139.998,45.000,27716.74676,1.94185,406.013,31.625,45.068,45.000,0.00,0.09,-272.70,-272.75,-12,14,1,18.5,2.7,-28.4,18.8,3.3,-26.2,5.73,2.52,-23.5,24.8
2015-02-10 00:23:00,0.0,1.94049,0.00033,405.666,0.035,0.0732,0.0013,140.000,45.000,27715.34620,1.94188,406.024,31.644,45.068,45.000,0.00,0.09,-272.69,-272.74,-13,14,1,18.5,2.7,-28.5,18.8,3.3,-26.2,5.73,2.52,-23.5,24.9
2015-02-10 00:24:00,0.0,1.94078,0.00035,405.664,0.032,0.0727,0.0013,140.003,45.000,27715.77925,1.94216,406.019,31.683,45.068,45.000,0.00,0.09,-272.69,-272.75,-13,13,0,18.5,2.7,-28.6,18.8,3.3,-26.2,5.73,2.43,-23.4,24.9
2015-02-10 00:25:00,0.0,1.94046,0.00047,405.654,0.025,0.0732,0.0020,140.000,45.000,27716.66103,1.94190,406.011,31.689,45.068,45.000,0.00,0.09,-272.69,-272.75,-12,14,0,18.5,2.7,-28.6,18.9,3.3,-26.2,5.73,2.45,-23.4,24.8
2015-02-10 00:26:00,0.0,1.94013,0.00032,405.626,0.038,0.0746,0.0017,139.996,45.000,27714.99054,1.94156,405.991,31.701,45.068,45.000,0.00,0.09,-272.69,-272.75,-13,14,0,18.5,2.8,-28.4,18.9,3.3,-26.2,5.73,2.54,-23.4,24.9
2015-02-10 00:27:00,0.0,1.94023,0.00048,405.638,0.026,0.0732,0.0012,139.998,45.000,27716.88474,1.94163,405.996,31.707,45.068,45.000,0.00,0.09,-272.69,-272.74,-12,13,1,18.6,2.7,-28.5,18.9,3.3,-26.2,5.73,2.50,-23.4,24.9
2015-02-10 00:28:00,0.0,1.94039,0.00045,405.666,0.037,0.0719,0.0016,140.000,45.000,27717.66388,1.94173,406.018,31.736,45.068,45.000,0.00,0.09,-272.69,-272.75,-12,14,0,18.6,2.7,-28.7,18.9,3.3,-26.2,5.73,2.42,-23.4,24.9
2015-02-10 00:29:00,0.0,1.94058,0.00026,405.685,0.050,0.0705,0.0018,139.997,45.000,27716.49561,1.94192,406.027,31.750,45.068,45.000,0.00,0.09,-272.69,-272.76,-12,14,0,18.6,2.6,-28.8,18.9,3.3,-26.2,5.73,2.48,-23.4,24.9
2015-02-10 00:30:00,0.0,1.94078,0.00028,405.678,0.028,0.0708,0.0014,140.000,45.000,27718.06760,1.94212,406.023,31.758,45.068,45.000,0.00,0.09,-272.68,-272.74,-12,13,0,18.6,2.6,-28.9,18.9,3.3,-26.1,5.73,2.54,-23.4,24.9
2015-02-10 00:31:00,0.0,1.94053,0.00029,405.656,0.033,0.0707,0.0014,140.001,45.000,27717.09304,1.94189,406.002,31.770,45.068,45.000,0.00,0.09,-272.70,-272.74,-12,13,0,18.6,2.6,-28.9,18.9,3.3,-26.2,5.73,2.48,-23.4,24.9
2015-02-10 00:32:00,0.0,1.94057,0.00046,405.672,0.036,0.0721,0.0018,140.000,45.000,27717.66557,1.94195,406.023,31.766,45.068,45.000,0.00,0.09,-272.69,-272.75,-13,14,1,18.6,2.7,-28.7,18.9,3.3,-26.1,5.73,2.42,-23.4,24.9
2015-02-10 00:33:00,0.0,1.94008,0.00023,405.639,0.030,0.0734,0.0016,140.002,45.000,27719.79763,1.94149,405.998,31.755,45.068,45.000,0.00,0.09,-272.69,-272.74,-13,13,0,18.6,2.7,-28.5,18.9,3.3,-26.1,5.73,2.49,-23.4,24.9
2015-02-10 00:34:00,0.0,1.94012,0.00030,405.663,0.019,0.0745,0.0011,140.001,45.000,27720.53140,1.94155,406.025,31.749,45.069,45.000,0.00,0.09,-272.69,-272.75,-12,13,0,18.6,2.8,-28.3,18.9,3.3,-26.1,5.73,2.54,-23.4,24.9
2015-02-10 00:35:00,0.0,1.94041,0.00036,405.674,0.025,0.0750,0.0016,139.997,45.000,27720.87253,1.94181,406.041,31.750,45.069,45.001,0.00,0.09,-272.70,-272.75,-13,14,0,18.7,2.7,-28.3,18.9,3.3,-26.1,5.73,2.47,-23.4,24.9
2015-02-10 00:36:00,0.0,1.94055,0.00027,405.650,0.035,0.0736,0.0021,140.002,45.000,27723.21739,1.94196,406.009,31.761,45.069,45.001,0.00,0.09,-272.68,-272.74,-13,13,0,18.7,2.7,-28.4,18.9,3.3,-26.1,5.73,2.42,-23.4,25.0
2015-02-10 00:37:00,0.0,1.94070,0.00035,405.664,0.025,0.0729,0.0013,139.998,45.000,27722.02586,1.94208,406.020,31.811,45.069,45.000,0.00,0.09,-272.70,-272.74,-12,13,0,18.7,2.7,-28.5,18.9,3.3,-26.1,5.73,2.51,-23.3,25.0
2015-02-10 00:38:00,0.0,1.94073,0.00037,405.690,0.028,0.0725,0.0016,140.000,45.000,27723.81707,1.94212,406.043,31.813,45.069,45.000,0.00,0.09,-272.70,-272.75,-13,14,0,18.7,2.7,-28.6,18.9,3.3,-26.1,5.73,2.53,-23.4,25.0
2015-02-10 00:39:00,0.0,1.94059,0.00039,405.684,0.023,0.0718,0.0015,139.998,45.000,27724.63445,1.94196,406.034,31.815,45.069,45.000,0.00,0.09,-272.70,-272.75,-13,14,0,18.7,2.7,-28.6,19.0,3.3,-26.1,5.73,2.45,-23.4,25.0
2015-02-10 00:40:00,0.0,1.94076,0.00045,405.663,0.029,0.0727,0.0024,139.998,45.000,27725.82604,1.94215,406.018,31.833,45.068,45.000,0.00,0.09,-272.69,-272.75,-12,14,0,18.6,2.7,-28.6,19.0,3.3,-26.1,5.73,2.43,-23.3,25.0
2015-02-10 00:41:00,0.0,1.94056,0.00042,405.665,0.029,0.0717,0.0017,139.998,45.000,27723.55465,1.94192,406.015,31.864,45.068,45.000,0.00,0.09,-272.69,-272.74,-12,14,0,18.7,2.7,-28.7,19.0,3.3,-26.1,5.73,2.51,-23.3,25.0
2015-02-10 00:42:00,0.0,1.94068,0.00041,405.658,0.045,0.0731,0.0018,140.001,45.000,27725.16504,1.94208,406.014,31.873,45.068,45.000,0.00,0.09,-272.68,-272.75,-13,14,0,18.7,2.7,-28.5,19.0,3.3,-26.1,5.73,2.53,-23.3,25.0
2015-02-10 00:43:00,0.0,1.94053,0.00043,405.639,0.042,0.0738,0.0019,140.001,45.000,27727.65626,1.94194,405.999,31.875,45.068,45.000,0.00,0.09,-272.69,-272.75,-12,13,0,18.7,2.7,-28.4,19.0,3.3,-26.1,5.73,2.45,-23.3,25.0
2015-02-10 00:44:00,0.0,1.94060,0.00041,405.640,0.032,0.0730,0.0016,140.003,45.000,27727.99345,1.94203,405.996,31.877,45.068,45.000,0.00,0.09,-272.68,-272.75,-12,14,0,18.7,2.7,-28.5,19.0,3.3,-26.1,5.73,2.43,-23.3,25.0
2015-02-10 00:45:00,0.0,1.94067,0.00041,405.669,0.028,0.0720,0.0018,140.004,45.000,27727.12452,1.94204,406.021,31.884,45.068,45.000,0.00,0.09,-272.69,-272.75,-13,14,0,18.7,2.7,-28.7,19.0,3.3,-26.1,5.73,2.51,-23.3,25.0
2015-02-10 00:46:00,0.0,1.94083,0.00030,405.676,0.031,0.0714,0.0012,140.000,45.000,27727.30303,1.94217,406.025,31.891,45.068,45.000,0.00,0.09,-272.70,-272.75,-13,13,0,18.7,2.6,-28.8,19.0,3.3,-26.1,5.73,2.52,-23.3,25.0
2015-02-10 00:47:00,0.0,1.94080,0.00049,405.700,0.029,0.0706,0.0019,140.002,45.000,27726.82975,1.94216,406.046,31.914,45.068,45.000,0.00,0.09,-272.70,-272.75,-12,14,0,18.7,2.6,-28.9,19.0,3.3,-26.1,5.73,2.45,-23.3,25.0
2015-02-10 00:48:00,0.0,1.94099,0.00024,405.681,0.027,0.0693,0.0014,140.002,45.000,27727.32795,1.94231,406.020,31.940,45.068,45.000,0.00,0.09,-272.69,-272.75,-13,14,0,18.7,2.6,-28.9,19.0,3.3,-26.1,5.73,2.43,-23.3,25.1
2015-02-10 00:49:00,0.0,1.94073,0.00038,405.662,0.031,0.0690,0.0014,139.997,45.000,27727.72605,1.94205,405.999,31.938,45.068,45.000,0.00,0.09,-272.69,-272.75,-13,14,0,18.7,2.6,-28.9,19.0,3.3,-26.1,5.73,2.50,-23.3,25.1
2015-02-10 00:50:00,0.0,1.94129,0.00029,405.691,0.032,0.0683,0.0016,140.001,45.000,27728.74885,1.94257,406.024,31.939,45.068,45.000,0.00,0.09,-272.69,-272.74,-12,13,0,18.7,2.5,-29.2,19.0,3.3,-26.1,5.73,2.53,-23.3,25.1
2015-02-10 00:51:00,0.0,1.94124,0.00042,405.679,0.028,0.0688,0.0017,140.001,45.000,27727.47092,1.94258,406.015,31.950,45.068,45.000,0.00,0.09,-272.69,-272.74,-13,14,0,18.7,2.5,-29.2,19.0,3.3,-26.1,5.73,2.45,-23.3,25.1
2015-02-10 00:52:00,0.0,1.94121,0.00049,405.699,0.026,0.0683,0.0021,140.001,45.000,27728.56525,1.94250,406.032,31.944,45.068,45.000,0.00,0.09,-272.69,-272.75,-13,14,0,18.7,2.5,-29.2,19.1,3.3,-26.1,5.73,2.42,-23.3,25.2
2015-02-10 00:53:00,0.0,1.94128,0.00035,405.717,0.028,0.0673,0.0013,140.000,45.000,27729.84354,1.94257,406.045,31.972,45.068,45.000,0.00,0.09,-272.70,-272.75,-12,13,0,18.7,2.5,-29.3,19.1,3.3,-26.0,5.73,2.50,-23.3,25.1
2015-02-10 00:54:00,0.0,1.94155,0.00031,405.709,0.031,0.0678,0.0017,140.002,45.000,27731.46915,1.94283,406.040,31.994,45.068,45.000,0.00,0.09,-272.69,-272.74,-13,14,0,18.7,2.5,-29.4,19.1,3.3,-26.0,5.73,2.53,-23.2,25.1
2015-02-10 00:55:00,0.0,1.94145,0.00032,405.705,0.030,0.0676,0.0015,140.000,45.000,27731.08782,1.94274,406.034,32.000,45.068,45.000,0.00,0.09,-272.70,-272.75,-13,14,0,18.8,2.5,-29.5,19.1,3.3,-26.0,5.73,2.45,-23.2,25.1
2015-02-10 00:56:00,0.0,1.94133,0.00029,405.693,0.035,0.0672,0.0019,140.000,45.000,27730.92370,1.94264,406.023,32.001,45.068,45.000,0.00,0.09,-272.68,-272.75,-13,13,0,18.8,2.5,-29.3,19.1,3.3,-26.0,5.73,2.43,-23.2,25.1
2015-02-10 00:57:00,0.0,1.94107,0.00039,405.695,0.032,0.0683,0.0018,139.999,45.000,27728.79327,1.94235,406.027,32.003,45.068,45.000,0.00,0.09,-272.69,-272.75,-12,14,0,18.8,2.5,-29.2,19.1,3.3,-26.0,5.73,2.50,-23.2,25.2
2015-02-10 00:58:00,0.0,1.94103,0.00034,405.700,0.029,0.0701,0.0010,139.997,45.000,27728.27893,1.94240,406.043,32.015,45.068,45.000,0.00,0.09,-272.69,-272.75,-13,14,0,18.8,2.6,-29.0,19.1,3.3,-26.0,5.73,2.53,-23.2,25.2
2015-02-10 00:59:00,0.0,1.94078,0.00039,405.680,0.028,0.0692,0.0018,139.999,45.000,27731.23663,1.94210,406.019,32.023,45.068,45.000,0.00,0.09,-272.69,-272.75,-13,14,0,18.8,2.6,-29.0,19.1,3.3,-26.0,5.73,2.46,-23.2,25.2
2015-02-10 01:00:00,0.0,1.94097,0.00036,405.704,0.033,0.0689,0.0016,140.000,45.000,27732.47966,1.94226,406.040,32.052,45.068,45.000,0.00,0.09,-272.69,-272.75,-12,14,0,18.8,2.5,-29.1,19.1,3.3,-26.0,5.73,2.42,-23.2,25.2
2015-02-10 01:01:00,0.0,1.94107,0.00039,405.686,0.037,0.0683,0.0015,139.999,45.000,27732.59331,1.94238,406.017,32.070,45.068,45.000,0.00,0.09,-272.69,-272.74,-13,14,0,18.8,2.5,-29.3,19.1,3.3,-26.0,5.73,2.49,-23.2,25.2
2015-02-10 01:02:00,0.0,1.94119,0.00026,405.724,0.031,0.0685,0.0019,140.000,45.000,27731.02514,1.94249,406.059,32.105,45.068,45.000,0.00,0.09,-272.70,-272.74,-13,14,0,18.8,2.5,-29.2,19.1,3.3,-26.0,5.73,2.53,-23.2,25.2
2015-02-10 01:03:00,0.0,1.94131,0.00049,405.700,0.032,0.0690,0.0015,140.000,45.000,27731.11477,1.94262,406.038,32.095,45.068,45.000,0.00,0.09,-272.69,-272.74,-13,13,0,18.8,2.5,-29.2,19.1,3.3,-26.0,5.73,2.47,-23.2,25.2
2015-02-10 01:04:00,0.0,1.94141,0.00027,405.676,0.026,0.0683,0.0014,140.001,45.000,27731.79357,1.94271,406.009,32.086,45.068,45.000,0.00,0.09,-272.68,-272.75,-13,14,0,18.8,2.5,-29.2,19.1,3.3,-26.0,5.73,2.42,-23.2,25.2
2015-02-10 01:05:00,0.0,1.94177,0.00038,405.722,0.030,0.0674,0.0021,140.003,45.000,27731.25981,1.94307,406.050,32.067,45.068,45.000,0.00,0.09,-272.69,-272.75,-13,14,0,18.8,2.5,-29.4,19.1,3.3,-26.0,5.73,2.47,-23.2,25.2
2015-02-10 01:06:00,0.0,1.94150,0.00032,405.720,0.030,0.0680,0.0015,140.001,45.000,27730.36336,1.94279,406.052,32.082,45.068,45.000,0.00,0.09,-272.70,-272.74,-13,13,0,18.8,2.5,-29.3,19.1,3.3,-26.0,5.73,2.53,-23.2,25.2
2015-02-10 01:07:00,0.0,1.94145,0.00026,405.701,0.040,0.0689,0.0018,140.000,45.000,27729.07563,1.94275,406.037,32.070,45.068,45.000,0.00,0.09,-272.69,-272.74,-13,14,0,18.8,2.5,-29.1,19.1,3.3,-26.0,5.73,2.49,-23.2,25.2
2015-02-10 01:08:00,0.0,1.94165,0.00038,405.699,0.032,0.0682,0.0023,140.002,45.000,27728.45941,1.94299,406.032,32.063,45.068,45.000,0.00,0.09,-272.69,-272.74,-13,14,0,18.8,2.5,-29.1,19.1,3.3,-26.0,5.73,2.42,-23.2,25.2
2015-02-10 01:09:00,0.0,1.94135,0.00051,405.721,0.028,0.0696,0.0014,139.998,45.000,27727.45158,1.94266,406.061,32.062,45.068,45.000,0.00,0.09,-272.69,-272.75,-13,14,0,18.8,2.5,-29.0,19.2,3.3,-26.0,5.73,2.45,-23.2,25.2
2015-02-10 01:10:00,0.0,1.94161,0.00039,405.706,0.027,0.0696,0.0010,139.999,45.000,27727.17404,1.94295,406.046,32.053,45.068,45.000,0.00,0.09,-272.68,-272.74,-13,13,0,18.9,2.6,-29.0,19.2,3.3,-26.0,5.73,2.52,-23.2,25.2
2015-02-10 01:11:00,0.0,1.94119,0.00036,405.682,0.027,0.0699,0.0019,140.000,45.000,27728.43938,1.94252,406.022,32.046,45.068,45.000,0.00,0.09,-272.70,-272.75,-13,14,0,18.8,2.6,-28.9,19.1,3.3,-26.0,5.73,2.51,-23.2,25.3
2015-02-10 01:12:00,0.0,1.94160,0.00044,405.701,0.029,0.0713,0.0021,139.998,45.000,27727.87364,1.94292,406.050,32.055,45.068,45.000,0.00,0.09,-272.70,-272.75,-13,14,0,18.9,2.6,-28.8,19.2,3.3,-26.0,5.73,2.43,-23.2,25.3
2015-02-10 01:13:00,0.0,1.94213,0.00033,405.722,0.029,0.0687,0.0017,140.003,45.000,27729.70434,1.94344,406.057,32.041,45.068,45.000,0.00,0.09,-272.68,-272.75,-13,13,0,18.8,2.5,-29.1,19.2,3.3,-26.0,5.73,2.43,-23.2,25.3
2015-02-10 01:14:00,0.0,1.94246,0.00034,405.720,0.031,0.0685,0.0017,139.998,45.000,27728.26202,1.94376,406.053,32.023,45.068,45.000,0.00,0.09,-272.69,-272.75,-13,14,0,18.9,2.5,-29.3,19.2,3.3,-26.0,5.73,2.52,-23.2,25.3
2015-02-10 01:15:00,0.0,1.94246,0.00035,405.728,0.040,0.0679,0.0017,139.999,45.000,27727.29916,1.94378,406.061,32.005,45.068,45.000,0.00,0.09,-272.70,-272.75,-13,14,0,18.8,2.5,-29.3,19.2,3.3,-26.0,5.73,2.51,-23.1,25.3
2015-02-10 01:16:00,0.0,1.94180,0.00037,405.713,0.035,0.0682,0.0016,139.996,45.000,27727.12036,1.94313,406.044,32.006,45.068,45.000,0.00,0.09,-272.70,-272.75,-13,13,0,18.9,2.5,-29.3,19.2,3.3,-26.0,5.73,2.43,-23.1,25.3
2015-02-10 01:17:00,0.0,1.94184,0.00036,405.723,0.028,0.0689,0.0014,140.002,45.000,27729.10268,1.94315,406.058,32.002,45.068,45.000,0.00,0.09,-272.69,-272.75,-13,14,0,18.9,2.5,-29.2,19.2,3.3,-26.0,5.73,2.43,-23.2,25.3
2015-02-10 01:18:00,0.0,1.94168,0.00038,405.718,0.029,0.0683,0.0015,139.999,45.000,27728.55925,1.94301,406.052,32.007,45.068,45.000,0.00,0.09,-272.69,-272.75,-13,14,0,18.9,2.5,-29.2,19.2,3.3,-26.0,5.73,2.51,-23.1,25.3
2015-02-10 01:19:00,0.0,1.94163,0.00035,405.727,0.029,0.0692,0.0014,140.000,45.000,27729.94310,1.94292,406.065,32.000,45.068,45.000,0.00,0.09,-272.70,-272.74,-13,14,0,18.9,2.5,-29.1,19.2,3.3,-26.0,5.73,2.51,-23.1,25.3
2015-02-10 01:20:00,0.0,1.94216,0.00026,405.710,0.031,0.0680,0.0018,140.000,45.000,27730.06090,1.94346,406.042,32.000,45.068,45.000,0.00,0.09,-272.69,-272.75,-13,14,0,18.9,2.5,-29.2,19.2,3.3,-26.0,5.73,2.43,-23.1,25.3
2015-02-10 01:21:00,0.0,1.94221,0.00034,405.725,0.031,0.0680,0.0017,140.001,45.000,27729.78793,1.94350,406.056,32.000,45.068,45.000,0.00,0.09,-272.68,-272.74,-13,14,0,18.9,2.5,-29.2,19.2,3.3,-26.0,5.73,2.42,-23.1,25.3
2015-02-10 01:22:00,0.0,1.94226,0.00043,405.730,0.037,0.0678,0.0014,139.998,45.000,27728.16428,1.94361,406.062,32.002,45.068,45.000,0.00,0.09,-272.69,-272.75,-13,14,0,18.9,2.5,-29.3,19.2,3.3,-25.9,5.73,2.50,-23.1,25.3
2015-02-10 01:23:00,0.0,1.94199,0.00031,405.704,0.029,0.0674,0.0020,139.998,45.000,27729.96513,1.94324,406.033,32.000,45.068,45.000,0.00,0.09,-272.69,-272.74,-13,13,0,18.9,2.5,-29.4,19.2,3.3,-26.0,5.73,2.52,-23.1,25.3
2015-02-10 01:24:00,0.0,1.94163,0.00040,405.706,0.026,0.0670,0.0025,139.999,45.000,27729.43294,1.94294,406.033,31.991,45.068,45.000,0.00,0.09,-272.69,-272.75,-13,14,0,18.9,2.5,-29.4,19.2,3.3,-25.9,5.73,2.43,-23.1,25.3
2015-02-10 01:25:00,0.0,1.94159,0.00039,405.715,0.033,0.0681,0.0016,140.000,45.000,27729.04157,1.94289,406.046,31.979,45.068,45.000,0.00,0.09,-272.69,-272.76,-13,14,0,18.9,2.5,-29.3,19.2,3.3,-25.9,5.73,2.42,-23.1,25.3
2015-02-10 01:26:00,0.0,1.94165,0.00045,405.694,0.030,0.0686,0.0013,140.001,45.000,27729.76837,1.94294,406.029,31.948,45.068,45.000,0.00,0.09,-272.69,-272.75,-13,13,0,18.9,2.5,-29.1,19.2,3.3,-26.0,5.73,2.51,-23.1,25.3
2015-02-10 01:27:00,0.0,1.94174,0.00035,405.726,0.023,0.0689,0.0018,140.002,45.000,27730.30257,1.94305,406.062,31.944,45.068,45.000,0.00,0.09,-272.69,-272.74,-13,13,-0,18.9,2.5,-29.2,19.2,3.3,-26.0,5.73,2.51,-23.1,25.3
2015-02-10 01:28:00,0.0,1.94150,0.00042,405.711,0.030,0.0687,0.0016,139.997,45.000,27728.76343,1.94283,406.045,31.940,45.069,45.001,0.00,0.09,-272.70,-272.74,-14,14,0,18.9,2.5,-29.2,19.2,3.3,-26.0,5.73,2.43,-23.1,25.3
2015-02-10 01:29:00,0.0,1.94131,0.00034,405.681,0.039,0.0684,0.0020,139.999,45.000,27729.26859,1.94261,406.017,31.939,45.069,45.001,0.00,0.09,-272.69,-272.75,-13,13,0,18.9,2.5,-29.0,19.2,3.3,-25.9,5.73,2.42,-23.1,25.3
2015-02-10 01:30:00,0.0,1.94151,0.00038,405.704,0.041,0.0696,0.0013,139.998,45.000,27729.46716,1.94288,406.044,31.941,45.068,45.000,0.00,0.09,-272.68,-272.73,-13,13,-0,18.9,2.5,-29.1,19.2,3.3,-26.0,5.73,2.50,-23.1,25.3
2015-02-10 01:31:00,0.0,1.94161,0.00035,405.707,0.030,0.0689,0.0011,139.997,45.000,27728.94136,1.94290,406.043,31.938,45.068,45.000,0.00,0.09,-272.69,-272.74,-13,14,-0,18.9,2.5,-29.1,19.2,3.3,-26.0,5.73,2.51,-23.1,25.4
2015-02-10 01:32:00,0.0,1.94143,0.00032,405.721,0.029,0.0685,0.0012,140.001,45.000,27730.48119,1.94276,406.055,31.936,45.068,45.000,0.00,0.09,-272.69,-272.76,-13,13,-0,18.9,2.5,-29.1,19.2,3.3,-26.0,5.73,2.44,-23.1,25.3
2015-02-10 01:33:00,0.0,1.94130,0.00037,405.691,0.035,0.0687,0.0019,140.000,45.000,27729.62009,1.94262,406.026,31.936,45.068,45.000,0.00,0.09,-272.69,-272.75,-13,13,-0,18.9,2.5,-29.1,19.2,3.3,-26.0,5.73,2.42,-23.1,25.3
2015-02-10 01:34:00,0.0,1.94123,0.00037,405.699,0.027,0.0685,0.0020,140.003,45.000,27731.22752,1.94252,406.034,31.948,45.068,45.000,0.00,0.09,-272.68,-272.75,-13,14,-0,18.9,2.5,-29.1,19.2,3.3,-26.0,5.73,2.50,-23.1,25.3
2015-02-10 01:35:00,0.0,1.94146,0.00036,405.681,0.034,0.0698,0.0018,140.000,45.000,27728.71316,1.94277,406.020,31.989,45.068,45.000,0.00,0.09,-272.70,-272.75,-13,14,-0,18.9,2.5,-29.1,19.2,3.3,-26.0,5.73,2.52,-23.1,25.3
2015-02-10 01:36:00,0.0,1.94160,0.00032,405.707,0.026,0.0701,0.0013,140.001,45.000,27727.98269,1.94297,406.049,31.996,45.068,45.000,0.00,0.09,-272.70,-272.75,-13,13,-0,18.9,2.5,-29.0,19.2,3.3,-26.0,5.73,2.43,-23.1,25.3
2015-02-10 01:37:00,0.0,1.94178,0.00032,405.686,0.029,0.0694,0.0016,139.999,45.000,27727.83400,1.94307,406.025,32.000,45.068,45.000,0.00,0.09,-272.69,-272.75,-13,14,-0,18.9,2.5,-29.1,19.2,3.3,-26.0,5.73,2.42,-23.1,25.3
2015-02-10 01:38:00,0.0,1.94193,0.00039,405.671,0.024,0.0690,0.0013,140.001,45.000,27727.11281,1.94325,406.008,32.000,45.068,45.000,0.00,0.09,-272.69,-272.75,-14,14,-0,18.9,2.5,-29.1,19.2,3.3,-26.0,5.73,2.50,-23.1,25.4
2015-02-10 01:39:00,0.0,1.94159,0.00043,405.689,0.035,0.0684,0.0018,140.000,45.000,27727.05117,1.94292,406.022,31.998,45.068,45.000,0.00,0.09,-272.70,-272.75,-13,13,0,18.9,2.5,-29.2,19.2,3.3,-26.0,5.73,2.51,-23.1,25.3
2015-02-10 01:40:00,0.0,1.94176,0.00033,405.699,0.037,0.0685,0.0016,140.001,45.000,27727.74284,1.94305,406.034,31.994,45.068,45.000,0.00,0.09,-272.69,-272.74,-13,14,0,18.9,2.5,-29.2,19.2,3.3,-26.0,5.73,2.43,-23.1,25.4
2015-02-10 01:41:00,0.0,1.94121,0.00033,405.669,0.037,0.0695,0.0017,140.001,45.000,27727.28632,1.94257,406.008,31.982,45.068,45.000,0.00,0.09,-272.68,-272.75,-14,14,-0,18.9,2.5,-29.1,19.2,3.3,-26.0,5.73,2.42,-23.1,25.4
2015-02-10 01:42:00,0.0,1.94136,0.00035,405.666,0.033,0.0703,0.0020,140.000,45.000,27726.79449,1.94272,406.010,31.958,45.068,45.000,0.00,0.09,-272.69,-272.75,-13,13,-0,18.9,2.6,-28.9,19.2,3.3,-26.0,5.73,2.50,-23.1,25.4
2015-02-10 01:43:00,0.0,1.94186,0.00040,405.684,0.032,0.0693,0.0020,140.001,45.000,27725.16564,1.94315,406.021,31.941,45.068,45.000,0.00,0.09,-272.70,-272.74,-13,14,-0,18.9,2.5,-29.0,19.2,3.3,-26.0,5.73,2.51,-23.1,25.4
2015-02-10 01:44:00,0.0,1.94173,0.00031,405.675,0.033,0.0705,0.0014,140.000,45.000,27723.17980,1.94307,406.020,31.938,45.068,45.000,0.00,0.09,-272.69,-272.74,-14,14,-0,18.9,2.5,-29.0,19.2,3.3,-26.0,5.73,2.42,-23.1,25.4
2015-02-10 01:45:00,0.0,1.94183,0.00036,405.658,0.023,0.0701,0.0022,140.000,45.000,27720.07226,1.94317,406.000,31.934,45.068,45.000,0.00,0.09,-272.69,-272.75,-13,13,-0,18.9,2.6,-28.9,19.2,3.3,-26.0,5.73,2.42,-23.1,25.4
2015-02-10 01:46:00,0.0,1.94174,0.00040,405.687,0.038,0.0700,0.0019,139.999,45.000,27716.70669,1.94309,406.028,31.935,45.068,45.000,0.00,0.09,-272.69,-272.75,-13,13,-0,18.9,2.6,-28.9,19.2,3.3,-26.0,5.73,2.50,-23.1,25.4